[[{"header":{"parameterUnit":"m.s-1","parameterCategory":1,"la1":30.2991,"la2":30.254,"lo1":-89.0895,"lo2":-89.0444,"dy":0.0017,"dx":0.0017,"nx":28,"ny":28,"refTime":"2024-05-20T03:00:00:Z","depth":0,"parameterNumber":2,"parameterNumberName":"U-component_of_WINDS"},"data":[0,0,0,0,0,0,0,0,0,0,0,0,0,0,0,0,0,0,0,0,0,0,0,0,0,0,0,0,0,0,0,0,0,0,0,0,0,0,0,0,0,0,0,0,0,0,0,0,0,0,0,0,0,0,0,0,0,0,0.3584,0.3585,0,0.3606,0.3606,0.3607,0.3576,0.3575,0.3574,0.3573,0.3596,0.3597,0.3599,0,0,0,0,0,0,0,0,0,0,0,0,0,0.3516,0.3518,0.3584,0.3585,0.3585,0.3606,0.3606,0.3607,0.3576,0.3575,0.3574,0.3573,0.3595,0.3597,0.3599,0,0,0,0,0,0,0,0,0,0,0,0,0,0.3543,0.3518,0.3584,0.3572,0.3571,0.3606,0.3606,0.3607,0.3577,0.3575,0.3573,0.3572,0.3594,0.3597,0.3599,0.3646,0,0,0.3606,0.3607,0,0,0,0,0,0,0,0,0.3541,0.3545,0.3574,0.3573,0.3572,0.3587,0.3591,0.362,0.3577,0.3575,0.3573,0.3571,0.3594,0.3596,0.3604,0.3647,0.3648,0.3607,0.3608,0.3609,0.361,0,0,0,0,0,0,0,0.354,0.3544,0.3593,0.3574,0.3573,0.3566,0.3568,0.3596,0.3593,0.3575,0.3573,0.3576,0.3593,0.3602,0.3604,0.3649,0.3607,0.3609,0.361,0.3611,0.3732,0.3734,0,0,0,0,0,0,0.3539,0.3543,0.3592,0.3594,0.3553,0.3568,0.3571,0.3584,0.3593,0.3593,0.3577,0.3574,0.3598,0.3601,0.3605,0.3661,0.3609,0.3611,0.3613,0.373,0.3732,0.3734,0,0,0,0,0,0,0.3538,0.3544,0.3591,0.3568,0.3573,0.3571,0.3586,0.3585,0.3593,0.3594,0.3594,0.3586,0.3597,0.3602,0.3636,0.3661,0.3612,0.3615,0.3728,0.3731,0.3733,0.3773,0,0,0,0,0,0,0.3536,0.3544,0.3562,0.3568,0.3575,0.3622,0.3588,0.3587,0.3598,0.3594,0.3603,0.3603,0.3596,0.3633,0.3639,0.3663,0.3617,0.3726,0.3729,0.3732,0.3769,0.3776,0.3783,0,0,0,0,0,0.3534,0.3572,0.3563,0.3569,0.3597,0.3624,0.3627,0.3619,0.36,0.3618,0.3618,0.3602,0.3657,0.3637,0.3643,0.3669,0.3724,0.3728,0.3732,0.3766,0.3775,0.3782,0,0,0,0,0,0,0.3568,0.3573,0.3562,0.3604,0.3614,0.3619,0.3641,0.3629,0.3644,0.364,0.363,0.3632,0.3669,0.3672,0.3649,0.3715,0.3688,0.3693,0.3711,0.372,0.3726,0.3724,0.3619,0,0,0,0,0,0.3581,0.3602,0.3605,0.3641,0.3647,0.3643,0.3655,0.3647,0.3657,0.3661,0.3664,0.3675,0.3694,0.3707,0.3725,0.377,0.3771,0.3791,0.3797,0.3803,0.3807,0.3831,0.384,0.3747,0.3747,0.3747,0,0,0.3606,0.3612,0.3626,0.3648,0.3655,0.3677,0.3647,0.3672,0.3689,0.3665,0.3698,0.3701,0.3711,0.3751,0.3769,0.3755,0.3833,0.3808,0.3812,0.3814,0.3836,0.3845,0.3852,0.375,0.3749,0.3749,0,0,0.3665,0.3671,0.3702,0.3709,0.372,0.3717,0.3725,0.3732,0.3733,0.3766,0.3748,0.3768,0.3802,0.381,0.3819,0.388,0.3866,0.3886,0.3921,0.3944,0.3952,0.3958,0.398,0.3988,0.3891,0.3891,0.3891,0,0.3696,0.3729,0.3719,0.3746,0.3756,0.3736,0.3767,0.3774,0.3791,0.3798,0.3783,0.3825,0.383,0.3872,0.3887,0.3894,0.3902,0.3885,0.3951,0.3958,0.3963,0.3984,0.3992,0.3894,0.3893,0.3893,0.3893,0,0.3766,0.3789,0.3813,0.3829,0.3842,0.387,0.3865,0.3879,0.3871,0.387,0.3904,0.391,0.3929,0.3938,0.393,0.3978,0.397,0.3953,0.3925,0.3975,0.3994,0.4002,0.3897,0.3896,0.3896,0.3895,0,0,0.3846,0.3857,0.3866,0.3872,0.3883,0.3901,0.3928,0.3947,0.3959,0.3971,0.3994,0.4023,0.4007,0.4017,0.401,0.4031,0.4079,0.4011,0.4011,0.4023,0.4132,0.4144,0.4153,0.4069,0.4071,0.4072,0.4131,0,0.3905,0.3952,0.3945,0.3991,0.4012,0.3993,0.4017,0.4026,0.4026,0.4044,0.4044,0.4065,0.4043,0.4049,0.4068,0.4069,0.41,0.4064,0.409,0.4091,0.4088,0.4163,0.4176,0.4231,0.4138,0.4139,0.414,0,0.3979,0.3993,0.4041,0.4048,0.4057,0.4079,0.4095,0.4112,0.4122,0.4121,0.4132,0.4121,0.4148,0.412,0.4158,0.4134,0.4144,0.4146,0.4148,0.415,0.4118,0.4167,0.4248,0.4256,0.4152,0.4151,0.415,0,0.4032,0.4064,0.4096,0.4103,0.4112,0.4128,0.4132,0.414,0.4152,0.4166,0.4173,0.4191,0.42,0.4214,0.4208,0.4188,0.4246,0.4218,0.4246,0.4246,0.4258,0.4258,0.4343,0.4266,0.4266,0.4266,0.4265,0,0.4097,0.4128,0.4121,0.4141,0.4174,0.4165,0.4198,0.42,0.4208,0.4228,0.4213,0.4232,0.4223,0.4242,0.4238,0.4269,0.4274,0.4273,0.4272,0.4275,0.4275,0.4281,0.4277,0.4268,0.4267,0.4267,0.4266,0,0.4162,0.4159,0.4193,0.4199,0.4201,0.4226,0.423,0.4249,0.4248,0.4274,0.4279,0.4278,0.4299,0.4295,0.4318,0.4315,0.4355,0.4349,0.4351,0.435,0.4378,0.4375,0.4469,0.4481,0.4397,0.4398,0.4398,0,0.4204,0.4227,0.4235,0.4247,0.4253,0.4273,0.4285,0.4277,0.429,0.4303,0.432,0.434,0.4355,0.439,0.4391,0.4409,0.4403,0.4435,0.4405,0.4407,0.4403,0.4401,0.4403,0.444,0.4441,0.4442,0.4443,0,0.4278,0.4276,0.4293,0.431,0.4324,0.4337,0.4348,0.436,0.4352,0.4368,0.4389,0.4401,0.4425,0.4445,0.4461,0.4466,0.4453,0.4452,0.4459,0.4462,0.4462,0.4462,0.4367,0.445,0.4449,0.4448,0.4448,0.4448,0.4333,0.4352,0.4361,0.438,0.4388,0.4399,0.4417,0.4418,0.4436,0.4455,0.4449,0.4474,0.4483,0.4504,0.451,0.4529,0.4517,0.4528,0.4531,0.4533,0.4536,0.446,0.4532,0.4532,0.4532,0.4532,0.4532,0,0.4406,0.441,0.4429,0.4445,0.4461,0.4448,0.446,0.4474,0.4495,0.4505,0.452,0.4545,0.4564,0.4567,0.4585,0.46,0.4594,0.4605,0.4603,0.4605,0.4546,0.4538,0.4609,0.4609,0.4609,0.4609,0.4609,0.4609,0.4445,0.4477,0.4476,0.4511,0.4515,0.4539,0.4547,0.4557,0.4565,0.4593,0.4609,0.4611,0.4617,0.4636,0.4653,0.4653,0.466,0.4673,0.4671,0.4616,0.4609,0.4601,0.4593,0.4675,0.4675,0.4728,0.4728,0.4728]},{"header":{"parameterUnit":"m.s-1","parameterCategory":1,"la1":30.2991,"la2":30.254,"lo1":-89.0895,"lo2":-89.0444,"dy":0.0017,"dx":0.0017,"nx":28,"ny":28,"refTime":"2024-05-20T03:00:00:Z","depth":0,"parameterNumber":3,"parameterNumberName":"V-component_of_WINDS"},"data":[0,0,0,0,0,0,0,0,0,0,0,0,0,0,0,0,0,0,0,0,0,0,0,0,0,0,0,0,0,0,0,0,0,0,0,0,0,0,0,0,0,0,0,0,0,0,0,0,0,0,0,0,0,0,0,0,0,0,-1.3255,-1.3256,0,-1.3331,-1.3332,-1.3332,-1.3375,-1.3375,-1.3375,-1.3375,-1.3452,-1.3454,-1.3456,0,0,0,0,0,0,0,0,0,0,0,0,0,-1.3147,-1.3148,-1.3255,-1.3256,-1.3257,-1.3331,-1.3332,-1.3333,-1.3375,-1.3375,-1.3375,-1.3375,-1.3452,-1.3454,-1.3456,0,0,0,0,0,0,0,0,0,0,0,0,0,-1.3205,-1.3149,-1.3255,-1.3287,-1.329,-1.333,-1.3332,-1.3333,-1.3375,-1.3375,-1.3375,-1.3376,-1.3451,-1.3454,-1.3457,-1.347,0,0,-1.3465,-1.3467,0,0,0,0,0,0,0,0,-1.3202,-1.3209,-1.3281,-1.3285,-1.3289,-1.3344,-1.3322,-1.3379,-1.3375,-1.3343,-1.3375,-1.3376,-1.3416,-1.3422,-1.3436,-1.3474,-1.3477,-1.3466,-1.3467,-1.3469,-1.347,0,0,0,0,0,0,0,-1.3198,-1.3206,-1.3285,-1.3282,-1.3287,-1.3297,-1.3306,-1.3333,-1.3377,-1.3346,-1.3349,-1.3357,-1.3418,-1.3433,-1.3438,-1.3478,-1.3466,-1.3468,-1.347,-1.3471,-1.3533,-1.3533,0,0,0,0,0,0,-1.3188,-1.3202,-1.3282,-1.3287,-1.3245,-1.3299,-1.3309,-1.3326,-1.3377,-1.3385,-1.3357,-1.3359,-1.3428,-1.3434,-1.344,-1.3461,-1.3469,-1.3471,-1.3473,-1.3534,-1.3533,-1.3533,0,0,0,0,0,0,-1.3186,-1.3195,-1.3279,-1.3246,-1.3257,-1.3301,-1.332,-1.3327,-1.3342,-1.3386,-1.3394,-1.3364,-1.3428,-1.3436,-1.3463,-1.3464,-1.3473,-1.3475,-1.3534,-1.3533,-1.3533,-1.3501,0,0,0,0,0,0,-1.3183,-1.3194,-1.3199,-1.3245,-1.3259,-1.33,-1.332,-1.3328,-1.3347,-1.335,-1.3394,-1.3402,-1.3429,-1.3458,-1.3466,-1.3468,-1.3478,-1.3534,-1.3534,-1.3533,-1.3502,-1.3499,-1.3497,0,0,0,0,0,-1.3179,-1.3187,-1.3199,-1.3209,-1.3267,-1.33,-1.3308,-1.3339,-1.3347,-1.3353,-1.3381,-1.34,-1.3463,-1.3461,-1.3469,-1.3473,-1.3534,-1.3534,-1.3533,-1.3503,-1.35,-1.3497,0,0,0,0,0,0,-1.3139,-1.3193,-1.3208,-1.3231,-1.3261,-1.3307,-1.3316,-1.3335,-1.3363,-1.3364,-1.3402,-1.3412,-1.3435,-1.3457,-1.3453,-1.3489,-1.35,-1.3502,-1.3474,-1.3472,-1.347,-1.3464,-1.348,0,0,0,0,0,-1.3133,-1.3156,-1.3202,-1.3218,-1.3232,-1.3271,-1.3287,-1.3309,-1.3341,-1.3354,-1.3384,-1.3414,-1.3441,-1.3458,-1.3485,-1.3505,-1.3516,-1.3512,-1.351,-1.3508,-1.3508,-1.3522,-1.3521,-1.3533,-1.3533,-1.3533,0,0,-1.3121,-1.3153,-1.3165,-1.3211,-1.3237,-1.326,-1.3282,-1.3305,-1.3322,-1.3357,-1.3384,-1.3408,-1.3444,-1.3468,-1.348,-1.3487,-1.3508,-1.3508,-1.3506,-1.3508,-1.3522,-1.3521,-1.352,-1.3533,-1.3533,-1.3533,0,0,-1.311,-1.3137,-1.3154,-1.3179,-1.3218,-1.3244,-1.3248,-1.3292,-1.3309,-1.3337,-1.3364,-1.3386,-1.3431,-1.3456,-1.3474,-1.3475,-1.3494,-1.3483,-1.3471,-1.3484,-1.3483,-1.3482,-1.3483,-1.3483,-1.3484,-1.3484,-1.3484,0,-1.309,-1.3126,-1.316,-1.3182,-1.3201,-1.3235,-1.3252,-1.3275,-1.3321,-1.3334,-1.3341,-1.3399,-1.3425,-1.3456,-1.3457,-1.347,-1.3477,-1.3478,-1.3481,-1.348,-1.348,-1.3481,-1.3481,-1.3482,-1.3482,-1.3482,-1.3482,0,-1.3099,-1.3124,-1.3132,-1.3176,-1.3197,-1.3216,-1.3254,-1.3271,-1.3291,-1.3317,-1.3345,-1.3379,-1.3414,-1.3423,-1.3443,-1.3457,-1.346,-1.3473,-1.3485,-1.3477,-1.3479,-1.3479,-1.348,-1.348,-1.3481,-1.3481,0,0,-1.3064,-1.3128,-1.313,-1.3151,-1.3197,-1.3217,-1.3238,-1.3273,-1.3287,-1.3318,-1.3337,-1.3375,-1.3388,-1.3409,-1.3432,-1.3444,-1.3443,-1.3456,-1.3457,-1.3452,-1.3462,-1.3451,-1.3451,-1.3456,-1.3456,-1.3457,-1.3459,0,-1.306,-1.31,-1.3133,-1.3161,-1.3185,-1.3218,-1.3237,-1.3267,-1.3292,-1.3316,-1.3343,-1.337,-1.3385,-1.3398,-1.3411,-1.344,-1.3445,-1.3441,-1.3475,-1.3475,-1.3464,-1.3452,-1.3441,-1.3442,-1.346,-1.346,-1.346,0,-1.306,-1.3091,-1.3121,-1.3166,-1.3177,-1.3194,-1.3229,-1.3251,-1.3287,-1.3304,-1.3329,-1.3353,-1.3378,-1.3388,-1.3423,-1.3419,-1.3435,-1.3452,-1.3453,-1.3457,-1.3467,-1.3456,-1.3442,-1.3442,-1.3461,-1.3461,-1.3461,0,-1.3032,-1.308,-1.3105,-1.3122,-1.3175,-1.3186,-1.3208,-1.3244,-1.3264,-1.3294,-1.3307,-1.334,-1.3358,-1.3384,-1.3417,-1.3421,-1.3449,-1.3461,-1.3464,-1.3463,-1.3468,-1.3467,-1.3457,-1.3478,-1.3478,-1.3478,-1.3478,0,-1.3024,-1.3041,-1.3094,-1.3109,-1.313,-1.3167,-1.3187,-1.3213,-1.3245,-1.3266,-1.3297,-1.3316,-1.3358,-1.3383,-1.3409,-1.3435,-1.3442,-1.3458,-1.3464,-1.3455,-1.3453,-1.3465,-1.3466,-1.3478,-1.3478,-1.3478,-1.3478,0,-1.2995,-1.3031,-1.306,-1.3109,-1.3121,-1.3135,-1.3176,-1.3193,-1.322,-1.3246,-1.3255,-1.3298,-1.3328,-1.3364,-1.3406,-1.3424,-1.3448,-1.3457,-1.3435,-1.3439,-1.344,-1.344,-1.3438,-1.3439,-1.3459,-1.3459,-1.3459,0,-1.2987,-1.3002,-1.3052,-1.3069,-1.3091,-1.3117,-1.3137,-1.3175,-1.3195,-1.3238,-1.3249,-1.3282,-1.3311,-1.3359,-1.3393,-1.3426,-1.3437,-1.3434,-1.3442,-1.3433,-1.3438,-1.3436,-1.3438,-1.3432,-1.3431,-1.3431,-1.3431,0,-1.297,-1.2987,-1.3015,-1.305,-1.3073,-1.3102,-1.3132,-1.3144,-1.3188,-1.3209,-1.3241,-1.3264,-1.3308,-1.334,-1.3378,-1.3402,-1.3424,-1.3428,-1.3431,-1.3421,-1.3408,-1.3415,-1.3429,-1.3428,-1.3428,-1.3428,-1.3428,-1.3429,-1.2952,-1.2967,-1.3005,-1.3035,-1.3062,-1.309,-1.3108,-1.3139,-1.3166,-1.3205,-1.3226,-1.3258,-1.3295,-1.3348,-1.3371,-1.3397,-1.3404,-1.3407,-1.3408,-1.3409,-1.3406,-1.3404,-1.3404,-1.3404,-1.3404,-1.3404,-1.3404,0,-1.2936,-1.2962,-1.299,-1.3032,-1.3056,-1.3076,-1.3111,-1.313,-1.3158,-1.3191,-1.3219,-1.3256,-1.3289,-1.3327,-1.3362,-1.3376,-1.3387,-1.3383,-1.3383,-1.3388,-1.3397,-1.3392,-1.3374,-1.3374,-1.3374,-1.3374,-1.3374,-1.3374,-1.293,-1.2957,-1.2979,-1.302,-1.3047,-1.3078,-1.3097,-1.3123,-1.315,-1.319,-1.3218,-1.3243,-1.3278,-1.3317,-1.3348,-1.3358,-1.337,-1.3363,-1.3377,-1.3385,-1.3387,-1.339,-1.3385,-1.3366,-1.3366,-1.3366,-1.3366,-1.3366]}]]